Regional Weather Roundup
Issued by NWS Midland/Odessa, TX

Home | Current Version | Previous Version | Text Only | Print | Product List | Glossary On
Versions: 1 2 3 4 5 6 7 8 9 10 11 12 13 14 15 16 17 18 19 20 21 22 23 24 25 26 27 28 29 30 31 32 33 34 35 36 37 38 39 40 41 42 43 44 45 46 47 48 49 50
000
ASUS44 KMAF 232310
RWRMAF
MIDLAND AREA WEATHER ROUNDUP
NATIONAL WEATHER SERVICE MIDLAND TX
600 PM CDT MON OCT 23 2017

...IN SOUTHWEST TEXAS AND SOUTHEAST NEW MEXICO...

CITY           SKY/WX    TMP DP  RH WIND       PRES   REMARKS
ALPINE         SUNNY     83  25  11 NE6       30.25R
ANDREWS        FAIR      79  36  21 E17       30.17R
ARTESIA        SUNNY     82  34  17 NE3       30.17R
BIG SPRING     SUNNY     79  37  21 NE12G18   30.15R
CARLSBAD       SUNNY     84  37  18 CALM      30.13F
DRYDEN           N/A     87  43  21 SE9       30.04S
FORT STOCKTON  SUNNY     84  29  13 NW10      30.13R
GUAD PASS      NOT AVBL
HOBBS          SUNNY     77  32  19 NE18G29   30.19R
LAMESA         FAIR      75  36  23 E18G24    30.18R
MARFA          SUNNY     81  26  13 W10       30.24S
MIDLAND AIRPK  SUNNY     81  37  20 NE13G18   30.14R
MIDLAND INTL   SUNNY     82  37  20 NE17      30.12R
ODESSA         SUNNY     82  36  19 NE14      30.13R
PECOS          SUNNY     85  33  15 NW10      30.10S
PRESIDIO       FAIR      91  26  10 W12G24    30.11S
SEMINOLE       SUNNY     76  34  21 E14G23    30.20R
SNYDER         SUNNY     77  36  22 NE18G26   30.15R
WINK           SUNNY     89  32  13 N5        30.08S
$$
...OTHER STATIONS IN TEXAS...

CITY           SKY/WX    TMP DP  RH WIND       PRES   REMARKS
ABILENE        SUNNY     77  45  32 N14       30.11R
AMARILLO       SUNNY     64  37  36 N17G26    30.30R
AUSTIN         CLEAR     78  50  37 S8        30.04F
BROWNSVILLE    SUNNY     81  65  58 E12       30.03S
CORPUS CHRISTI MOSUNNY   77  52  41 E13       30.04F
DALLAS FTW     CLOUDY    81  45  28 W8        30.02F
DEL RIO        SUNNY     83  58  42 S7        30.02S
EL PASO        MOSUNNY   84  24  11 CALM      30.18F
HOUSTON INT    PTCLDY    75  52  44 CALM      30.04F
LUBBOCK        MOSUNNY   73  35  25 NE16G25   30.22R
SAN ANGELO     SUNNY     86  39  19 NE9       30.06R
SAN ANTONIO    SUNNY     81  49  32 CALM      30.06F
WACO           CLEAR     79  46  31 S9        30.04F
WICHITA FALLS  PTCLDY    65  30  27 N17       30.15R
$$
...OTHER LOCATIONS IN NEW MEXICO...

CITY           SKY/WX    TMP DP  RH WIND       PRES   REMARKS
ALAMOGORDO     SUNNY     82  28  14 N13       30.20S
ALBUQUERQUE    MOSUNNY   75  24  15 NW18      30.31F
CANNON AFB     NOT AVBL
CLOVIS           N/A     66  39  37 NE15G21   30.30R
HOLLOMAN AFB   SUNNY     83  27  13 NW16      30.20S
ROSWELL        SUNNY     81  38  21 E14       30.18R
RUIDOSO        SUNNY     72  27  18 W7        30.38S
SANTA FE       SUNNY     71  27  19 CALM      30.33F
TRUTH OR CONSE SUNNY     83  24  11 NE5       30.24F
TUCUMCARI      SUNNY     67  36  31 E17       30.29R
$$




USA.gov is the U.S. government's official web portal to all federal, state and local government web resources and services.